Lanai City, HI

1:26 AM HST on November 24, 2017 (GMT -1000)
Lanai City

Weather History for PHNY - March, 2013

Change the Weather History Date:

Thursday, March 7, 2013

  Actual Average Record
Temperature  
Mean Temperature 70 °F -  
Max Temperature 79 °F 76 °F 82 °F (2002)
Min Temperature 61 °F 59 °F 52 °F (1950)
Cooling Degree Days 5    
Growing Degree Days 20 (Base 50)    
Moisture  
Dew Point 62 °F    
Average Humidity 81    
Maximum Humidity 100    
Minimum Humidity 45    
Precipitation  
Precipitation 0.14 in - - ()
Sea Level Pressure  
Sea Level Pressure 30.07 in    
Wind  
Wind Speed 8 mph (North)    
Max Wind Speed 15 mph    
Max Gust Speed -    
Visibility 10 miles    
Events Rain    
Averages and records for this station are not official NWS values.
T = Trace of Precipitation, MM = Missing Value Source: NWS Daily Summary

Daily Weather History Graph

Daily Weather History Graph

Search for Another Location

Airport or City:

Trip Planner

Search our weather history database for the weather conditions in past years. The results will help you decide how hot, cold, wet, or windy it might be!

Date:

Astronomy

Mar. 07, 2013 Rise Set
Actual Time 6:42 AM HST 6:34 PM HST
Civil Twilight 6:20 AM HST 6:56 PM HST
Nautical Twilight 5:54 AM HST 7:22 PM HST
Astronomical Twilight 5:29 AM HST 7:48 PM HST
Moon 3:25 AM HST (3/7) 2:58 PM HST (3/7)
Length of Visible Light 12h 36m
Length of Day
11h 52m
Waning Crescent, 18% of the Moon is Illuminated
Mar 7
Waning Crescent
Mar 11
New
Mar 19
First Quarter
Mar 26
Full
Apr 2
Last Quarter

Hourly Weather History & Observations

Time (HST) Temp. Dew Point Humidity Pressure Visibility Wind Dir Wind Speed Gust Speed Precip Events Conditions
12:56 AM 65.8 °F 61.9 °F 87% 30.09 in 10.0 mi NNE 8.1 mph - N/A   Overcast
1:56 AM 65.8 °F 61.9 °F 87% 30.06 in 10.0 mi NE 15.0 mph - N/A   Mostly Cloudy
2:56 AM 65.8 °F 61.0 °F 84% 30.04 in 10.0 mi NE 15.0 mph - N/A   Overcast
3:56 AM 65.8 °F 61.0 °F 84% 30.04 in 10.0 mi NE 13.8 mph - N/A   Overcast
4:56 AM 64.4 °F 60.8 °F 88% 30.08 in 10.0 mi NNE 13.8 mph - N/A   Clear
5:56 AM 63.9 °F 59.9 °F 87% 30.05 in 10.0 mi NE 12.7 mph - N/A   Partly Cloudy
6:56 AM 61.9 °F 56.8 °F 84% 30.07 in 10.0 mi ESE 6.9 mph - N/A   Clear
7:56 AM 66.9 °F 61.9 °F 84% 30.09 in 10.0 mi ENE 3.5 mph - N/A   Clear
8:56 AM 72.9 °F 59.0 °F 62% 30.09 in 10.0 mi Variable 4.6 mph - N/A   Clear
9:56 AM 77.9 °F 61.9 °F 58% 30.09 in 10.0 mi West 6.9 mph - N/A   Mostly Cloudy
10:56 AM 78.8 °F 62.6 °F 57% 30.13 in 10.0 mi Variable 6.9 mph - N/A   Mostly Cloudy
11:56 AM 79.9 °F 56.8 °F 45% 30.06 in 10.0 mi SSW 8.1 mph - N/A   Partly Cloudy
12:56 PM 77.0 °F 61.9 °F 59% 30.04 in 10.0 mi West 6.9 mph - N/A   Overcast
1:56 PM 75.2 °F 60.8 °F 61% 30.07 in 10.0 mi West 8.1 mph - N/A   Overcast
2:47 PM 73.4 °F 60.8 °F 65% 30.06 in 10.0 mi WNW 9.2 mph - N/A   Overcast
2:56 PM 72.9 °F 61.0 °F 66% 30.01 in 10.0 mi WNW 5.8 mph - N/A   Overcast
3:56 PM 70.9 °F 61.9 °F 73% 30.00 in 10.0 mi West 8.1 mph - N/A   Overcast
4:36 PM 71.6 °F 62.6 °F 73% 30.06 in 10.0 mi WSW 4.6 mph - N/A   Overcast
4:56 PM 69.8 °F 62.6 °F 78% 30.06 in 10.0 mi WNW 5.8 mph - N/A Rain Light Rain
5:04 PM 71.6 °F 62.6 °F 73% 30.06 in 10.0 mi WNW 4.6 mph - 0.00 in   Overcast
5:13 PM 71.6 °F 62.6 °F 73% 30.06 in 10.0 mi WNW 5.8 mph - 0.00 in   Overcast
5:56 PM 68.0 °F 63.0 °F 84% 30.03 in 10.0 mi West 4.6 mph - 0.00 in Rain Light Rain
6:04 PM 68.0 °F 64.4 °F 88% 30.07 in 10.0 mi Variable 3.5 mph - 0.01 in Rain Light Rain
6:14 PM 68.0 °F 64.4 °F 88% 30.07 in 10.0 mi WSW 3.5 mph - 0.01 in Rain Light Rain
6:40 PM 66.2 °F 62.6 °F 88% 30.08 in 10.0 mi WSW 4.6 mph - 0.01 in Rain Light Rain
6:56 PM 66.9 °F 63.0 °F 87% 30.05 in 10.0 mi Calm Calm - 0.01 in   Mostly Cloudy
7:33 PM 66.2 °F 62.6 °F 88% 30.10 in 10.0 mi Calm Calm - N/A   Mostly Cloudy
7:43 PM 68.0 °F 62.6 °F 83% 30.10 in 10.0 mi Calm Calm - N/A   Mostly Cloudy
7:56 PM 66.2 °F 62.6 °F 88% 30.10 in 10.0 mi NE 3.5 mph - N/A Rain Light Rain
8:07 PM 66.2 °F 62.6 °F 88% 30.11 in 2.5 mi South 3.5 mph - 0.03 in Rain Heavy Rain
8:37 PM 66.2 °F 64.4 °F 94% 30.11 in 4.0 mi Calm Calm - 0.10 in Rain Light Rain
8:56 PM 65.8 °F 64.9 °F 97% 30.06 in 10.0 mi Calm Calm - 0.12 in Rain Light Rain
9:28 PM 66.2 °F 64.4 °F 94% 30.11 in 10.0 mi ENE 3.5 mph - 0.00 in Rain Light Rain
9:36 PM 66.2 °F 64.4 °F 94% 30.11 in 10.0 mi East 4.6 mph - 0.00 in   Overcast
9:56 PM 65.8 °F 64.9 °F 97% 30.06 in 10.0 mi East 3.5 mph - 0.01 in   Overcast
10:56 PM 66.2 °F 64.4 °F 94% 30.11 in 10.0 mi East 3.5 mph - N/A Rain Light Rain
11:26 PM 64.4 °F 64.4 °F 100% 30.11 in 10.0 mi Calm Calm - 0.00 in   Mostly Cloudy
11:48 PM 64.4 °F 62.6 °F 94% 30.10 in 10.0 mi East 4.6 mph - 0.00 in   Scattered Clouds
11:56 PM 63.9 °F 61.9 °F 93% 30.04 in 10.0 mi East 4.6 mph - 0.00 in   Partly Cloudy